Location: Doschendorf
(50.0069°N, 11.0602°E)
Time: 09:38:34
(UTC+00:00)

CZ-4 R/B - Pass Details

Date: 17 November 2019
Orbit: 530 x 601 km, 97.7° (Epoch: 10 December)

Event Time Altitude Azimuth Distance (km) Brightness Sun altitude
Rises 18:31:34 0° 203° (SSW) 2,813 5.2 -29.0°
Reaches altitude 10° 18:34:14 10° 221° (SW) 1,906 4.4 -29.4°
Maximum altitude 18:37:16 20° 268° (W) 1,384 4.0 -29.9°
Drops below altitude 10° 18:40:17 10° 315° (NW) 1,889 4.6 -30.4°
Sets 18:42:55 0° 334° (NNW) 2,777 5.3 -30.8°
